Location: Azul
(36.7830°S, 59.8500°W)
Time: 01:26:53
(UTC-03:00)

CUBEBUG 2 - Pass Details

Date: 31 October 2021
Orbit: 584 x 697 km, 97.7° (Epoch: 30 November)

Event Time Altitude Azimuth Distance (km) Brightness Sun altitude
Exits shadow 04:41:01 20° 274° (W) 1,438 ? -14.3°
Maximum altitude 04:41:02 20° 274° (W) 1,438 ? -14.3°
Drops below altitude 10° 04:44:17 10° 226° (SW) 2,022 ? -13.7°
Sets 04:47:03 0° 208° (SSW) 2,963 ? -13.3°
